Home   Weather   Butte   Past weeks

Flag for USA Past Weather in Butte, Montana, USA — Yesterday and Last 2 Weeks

Now
47 °F

Clear.


Feels Like: 47 °F
Forecast: 42 / 69 °F
Wind: No wind

Location: Mooney Airport

Current Time: Sep 29, 2016 at 2:26:01 AM

Latest Report: Sep 29, 2016 at 1:53 AM


Visibility: 10 mi

Pressure: 30.07 "Hg (24.51 "Hg at 1685m altitude)

Humidity: 77%

Dew Point: 40 °F

Location of ButteLocation

Past Weather in Butte — Graph

°F

Butte Temperature Yesterday

Maximum temperature yesterday: 75 °F (at 4:53 PM)
Minimum temperature yesterday: 36 °F (at 7:53 AM)
Average temperature yesterday: 56 °F

High & Low Weather Summary for the Past Weeks

 TemperatureHumidityPressure
High77 °F (Sep 27, 3:53 PM)100% (Sep 15, 2:53 AM)30.52 "Hg (Sep 15, 2:53 AM)
Low28 °F (Sep 25, 5:53 AM)12% (Sep 19, 3:53 PM)29.83 "Hg (Sep 18, 3:53 AM)
Average50 °F66%30.09 "Hg
* Reported Sep 14 12:53 AM — Sep 29 12:53 AM, Butte, Weather by CustomWeather, © 2016

Note: Actual official high and low records may vary slightly from our data, if they occured in-between our weather recording intervals... More about our weather records

Advertising

Butte Weather History for the Previous 24 Hours

Scroll right to see more
 ConditionsComfort  
Time TempWeatherWind HumidityBarometerVisibility
12:53 AM
Thu, Sep 29
51 °FClear.No wind66%30.07 "Hg10 mi
11:53 PM
Wed, Sep 28
53 °FClear.6 mph61%30.08 "Hg10 mi
10:53 PM57 °FClear.3 mph53%30.08 "Hg10 mi
9:53 PM56 °FClear.5 mph58%30.10 "Hg10 mi
8:53 PM62 °FClear.12 mph50%30.12 "Hg10 mi
7:53 PM63 °FPassing clouds.16 mph48%30.11 "Hg10 mi
6:53 PM70 °FSunny.13 mph30%30.07 "Hg10 mi
5:53 PM75 °FSunny.7 mph19%30.05 "Hg10 mi
4:53 PM75 °FSunny.13 mph24%30.06 "Hg10 mi
3:53 PM74 °FSunny.14 mph27%30.06 "Hg10 mi
2:53 PM73 °FSunny.15 mph30%30.07 "Hg10 mi
1:53 PM72 °FSunny.14 mph31%30.09 "Hg10 mi
12:53 PM70 °FSunny.16 mph34%30.11 "Hg10 mi
11:53 AM67 °FSunny.14 mph37%30.13 "Hg10 mi
10:53 AM61 °FSunny.No wind48%30.17 "Hg10 mi
9:53 AM54 °FSunny.3 mph59%30.19 "Hg10 mi
8:53 AM42 °FSunny.No wind82%30.23 "Hg10 mi
7:53 AM36 °FSunny.3 mph89%30.22 "Hg10 mi
6:53 AM37 °FClear.No wind89%30.17 "Hg10 mi
5:53 AM38 °FClear.No wind86%30.16 "Hg10 mi
4:53 AM38 °FClear.5 mph90%30.15 "Hg10 mi
3:53 AM41 °FClear.3 mph82%30.14 "Hg10 mi
2:53 AM43 °FClear.3 mph79%30.13 "Hg10 mi
Weather by CustomWeather, © 2016

See weather overviewHow to use our weather pages